Location: Kershaw
(34.5481°N, 80.5823°W)
Time: 05:36:30
(UTC+00:00)

Transit 2A Rocket - Pass Details

Date: 10 October 2022
Orbit: 589 x 911 km, 66.7° (Epoch: 27 November)

Event Time Altitude Azimuth Distance (km) Brightness Sun altitude
Exits shadow 08:55:13 21° 30° (NNE) 1,353 6.7 -31.2°
Drops below altitude 10° 08:56:39 10° 29° (NNE) 1,925 7.5 -30.9°
Sets 08:58:55 0° 28° (NNE) 2,844 8.5 -30.5°
